THOR BURNER 2 R/B, 2741

Orbit data source: Space-Track

THOR BURNER 2 R/B, 2741 is space debris in SSO originally from a launch on Wed, 08 Feb 1967 UTC launched from the Air Force Western Test Range (AFWTR). Debris objects in space refer to the collection of defunct objects orbiting the Earth. Examples of debris include non-operational satellites, rocket bodies, and fragments generated from explosions, collisions, or faulty payload assembly.

Loading next visibility...
Identifier
2741, 1967-010B
Orbit
SSO
Last TLE update
20 hours ago
Origin
Manufacturer
Thiokol/TE
Mission
Spacecraft
Bus & Motor
STAR 37, Unknown motor
Mass
136 kg wet, 136 kg dry
Launch date (UTC)
1967-02-08 (58 years ago)
Launch vehicle
Unknown
Launch site
Air Force Western Test Range (AFWTR)
Object type
Payload
Rocket body
Debris
Shape & HBR
Sphere + Cone + 1 Truss, 1.7 m
Radar Cross Section
2.270 m², Large (>1 m²)

Expand to show TLE details & history

TLE from 20 hours ago
0 THOR BURNER 2 R/B
1 02741U 67010B   25191.27016951  .00000073  00000-0  46413-4 0  9999
2 02741  98.9312 130.9411 0052233 196.7941 163.1512 14.29038959 36434
Epoch: 2025-07-10T06:29Z
TLE epoch observation values (Epoch: 2025-07-10T06:29:02.645Z)
Latitude
-0.00006°
Longitude
105.24123°
Altitude
833.747 km
Speed
7.417 km/s
True Right ascension
08h 43m 45s
True Declination
0° 00' 00"
Sunlit
Object was in daylight at epoch
Visualization orbit readout
Latitude
-41.41972°
Longitude
-81.85277°
Altitude
777.456 km
Speed
7.481 km/s
Apparent Right ascension
23h 05m 23s
Apparent Declination
-50° 27' 26"
Sunlit
Object is in full shadow
Visualization observer readout
Local Sidereal Time
14:16:38
Azimuth
123.91° SE
Elevation
-55.359°
Doppler factor
1
Orbital elements
Apogee altitude
829.554 km
Perigee altitude
754.65 km
Semi-major axis
7,170.239 km
Eccentricity
0.00522
Inclination
98.9312°
RAAN
130.9411°
Arg. of periapsis
196.7941°
True anomaly
Unknown
Mean anomaly
163.1512°
Eccentric anomaly
Unknown
Mean motion
3.57473 °/min
Orbital period
100.71 mins
BSTAR
0.000046413
Loading maneuver chart data...
Loading SW <> Apogee altitude chart data...
Loading historical data...
Loading historical data...
Loading historical data...
Loading historical data...
Loading historical data...
Loading historical data...
Loading historical data...
Other satellites on launch #10 in the year 1967 (1967-02-08 UTC)

THOR BURNER 2 R/B Visibility forecast

Observer location: undefined°, undefined°

Span
Click to sort rows by Start time (UTC) header in descending order
Start Az.
Max El. time (UTC)
Max El. Az.
Max El.
End time (UTC)
End Az.
8 mins2025-07-11 08:17:09.477Z35.442° NE2025-07-11 08:21:09.477Z101.47° ESE31.086°2025-07-11 08:25:09.477Z162.716° S
6 mins2025-07-11 09:58:09.477Z331.053° NNW2025-07-11 10:00:09.477Z298.724° NW23.165°2025-07-11 10:04:09.477Z242.63° WSW
8 mins2025-07-11 19:35:09.477Z145.052° SSE2025-07-11 19:39:09.477Z60.949° ENE40.125°2025-07-11 19:43:09.477Z357.191° N
5 mins2025-07-11 21:17:09.477Z245.764° WSW2025-07-11 21:19:09.477Z272.572° WNW16.658°2025-07-11 21:22:09.477Z307.414° NW
|